Location: Newark
(42.7133°N, 87.7910°W)
Time: 15:17:27
(UTC+00:00)

Tiros 1 - Pass Details

Date: 28 September 2019
Orbit: 630 x 664 km, 48.4° (Epoch: 13 October)

Event Time Altitude Azimuth Distance (km) Brightness Sun altitude
Rises 13:57:58 0° 187° (S) 2,980 10.8 22.7°
Reaches altitude 10° 14:01:23 10° 162° (SSE) 2,069 10.5 23.3°
Maximum altitude 14:03:48 14° 132° (SE) 1,822 11.3 23.7°
Drops below altitude 10° 14:06:12 10° 101° (E) 2,069 11.4 24.1°
Sets 14:09:36 0° 76° (ENE) 2,978 11.3 24.6°
